Location: BS-Broitzem
(52.2300°N, 10.4800°E)
Time: 19:10:48
(UTC+01:00)

ISS - Visible Passes

Search period start: 12 December 2025 00:00
Search period end: 22 December 2025 00:00
Orbit: 416 x 420 km, 51.6° (Epoch: 12 December)

Date Brightness Start Highest point End Pass type
(mag) Time Alt. Az. Time Alt. Az. Time Alt. Az.
13 Dec -1.0 07:14:54 10° SSW 07:17:33 21° SE 07:20:11 10° E visible
14 Dec -0.7 06:27:42 10° S 06:29:45 15° SE 06:31:48 10° ESE visible
15 Dec -0.4 05:41:26 10° SSE 05:41:59 10° SE 05:42:32 10° SE visible
15 Dec -2.3 07:14:53 10° SW 07:18:03 38° SSE 07:21:14 10° E visible
16 Dec -1.8 06:27:10 10° SSW 06:30:07 28° SSE 06:33:05 10° E visible
17 Dec -1.5 05:41:15 18° S 05:42:13 21° SE 05:44:50 10° E visible
17 Dec -3.3 07:15:14 10° WSW 07:18:35 62° SSE 07:21:55 10° E visible
18 Dec -0.5 04:55:34 13° ESE 04:55:34 13° ESE 04:56:18 10° ESE visible
18 Dec -3.0 06:28:32 21° SW 06:30:32 49° SSE 06:33:49 10° E visible
19 Dec -2.5 05:42:40 37° SSE 05:42:40 37° SSE 05:45:39 10° E visible
19 Dec -3.7 07:15:42 10° W 07:19:05 80° S 07:22:27 10° E visible
20 Dec -0.6 04:56:39 15° E 04:56:39 15° E 04:57:24 10° E visible
20 Dec -3.6 06:29:35 33° WSW 06:30:56 72° S 06:34:18 10° E visible
21 Dec -2.8 05:43:28 47° ESE 05:43:28 47° ESE 05:46:08 10° E visible
21 Dec -3.7 07:16:23 12° W 07:19:29 81° S 07:22:52 10° E visible
